When you browse on this site, cookies collect data to enhance your experience and personalize the content and advertising you see.
Visit our Privacy Policy to learn more. By continuing to use the site, you agree to this use of cookies and data.
  • In Spain
  • List of Countries
  • For 7 days
  • Water Temperature
  • Weather Map
  • Weather Widgets
  • user-avatar
    Login

    Hourly Weather Punakha

    Today, 17 February, Monday

    Time Temperature Precipitation Wind Pressure Humidity
    00:00 +8°C° 0 mm 1 mps 583 mmHg 78%
    01:00 +8°C° 0 mm 1 mps 583 mmHg 75%
    02:00 +8°C° 0 mm 1 mps 583 mmHg 72%
    03:00 +8°C° 0 mm 1 mps 582 mmHg 70%
    04:00 +7°C° 0 mm 1 mps 582 mmHg 66%
    05:00 +7°C° 0 mm 1 mps 582 mmHg 63%
    06:00 +6°C° 0 mm 1 mps 581 mmHg 59%
    07:00 +8°C° 0 mm 1 mps 583 mmHg 55%
    08:00 +11°C° 0 mm 1 mps 584 mmHg 51%
    09:00 +13°C° 0 mm 1 mps 585 mmHg 47%
    10:00 +14°C° 0 mm 2 mps 585 mmHg 48%
    11:00 +15°C° 0 mm 2 mps 585 mmHg 49%
    12:00 +16°C° 0 mm 3 mps 585 mmHg 50%
    13:00 +14°C° 0.1 mm 3 mps 584 mmHg 55%
    14:00 +14°C° 0.1 mm 3 mps 584 mmHg 59%
    15:00 +13°C° 0.1 mm 3 mps 583 mmHg 64%
    16:00 +12°C° 0.2 mm 2 mps 582 mmHg 74%
    17:00 +10°C° 0.2 mm 2 mps 582 mmHg 85%
    18:00 +9°C° 0.2 mm 1 mps 581 mmHg 95%
    19:00 +9°C° 0.2 mm 1 mps 581 mmHg 94%
    20:00 +9°C° 0.2 mm 1 mps 582 mmHg 94%
    21:00 +7°C° 0.2 mm 0 mps 582 mmHg 93%
    22:00 +7°C° 0.2 mm 0 mps 582 mmHg 92%
    23:00 +7°C° 0.2 mm 0 mps 582 mmHg 91%

    Tomorrow, 18 February, Tuesday

    Time Temperature Precipitation Wind Pressure Humidity
    00:00 +7°C° 0.2 mm 0 mps 582 mmHg 91%
    01:00 +6°C° 0.1 mm 0 mps 582 mmHg 89%
    02:00 +7°C° 0.1 mm 1 mps 581 mmHg 88%
    03:00 +7°C° 0.1 mm 1 mps 581 mmHg 86%
    04:00 +6°C° 0 mm 1 mps 581 mmHg 82%
    05:00 +6°C° 0 mm 1 mps 581 mmHg 78%
    06:00 +4°C° 0 mm 2 mps 581 mmHg 73%
    07:00 +7°C° 0 mm 2 mps 582 mmHg 68%
    08:00 +9°C° 0 mm 2 mps 584 mmHg 62%
    09:00 +12°C° 0 mm 1 mps 585 mmHg 57%
    10:00 +13°C° 0 mm 2 mps 586 mmHg 51%
    11:00 +15°C° 0 mm 2 mps 586 mmHg 45%
    12:00 +17°C° 0 mm 2 mps 586 mmHg 39%
    13:00 +16°C° 0 mm 3 mps 586 mmHg 41%
    14:00 +16°C° 0 mm 3 mps 585 mmHg 43%
    15:00 +16°C° 0 mm 3 mps 585 mmHg 45%
    16:00 +14°C° 0.1 mm 2 mps 584 mmHg 61%
    17:00 +11°C° 0.1 mm 1 mps 583 mmHg 76%
    18:00 +9°C° 0.1 mm 1 mps 581 mmHg 92%
    19:00 +9°C° 0 mm 1 mps 582 mmHg 88%
    20:00 +8°C° 0 mm 1 mps 583 mmHg 84%
    21:00 +8°C° 0 mm 1 mps 583 mmHg 80%
    22:00 +8°C° 0 mm 1 mps 583 mmHg 78%
    23:00 +8°C° 0 mm 1 mps 583 mmHg 76%

    Day after tomorrow, 19 February, Wednesday

    Time Temperature Precipitation Wind Pressure Humidity
    00:00 +7°C° 0 mm 1 mps 582 mmHg 75%
    01:00 +7°C° 0.1 mm 1 mps 582 mmHg 76%
    02:00 +7°C° 0.1 mm 1 mps 582 mmHg 77%
    03:00 +7°C° 0.1 mm 1 mps 582 mmHg 78%
    04:00 +6°C° 0 mm 1 mps 582 mmHg 78%
    05:00 +6°C° 0 mm 1 mps 582 mmHg 78%
    06:00 +6°C° 0 mm 1 mps 581 mmHg 78%
    07:00 +8°C° 0 mm 1 mps 583 mmHg 70%
    08:00 +10°C° 0 mm 1 mps 584 mmHg 63%
    09:00 +12°C° 0 mm 1 mps 586 mmHg 55%
    10:00 +13°C° 0 mm 1 mps 586 mmHg 52%
    11:00 +14°C° 0 mm 2 mps 586 mmHg 48%
    12:00 +15°C° 0 mm 2 mps 586 mmHg 45%
    13:00 +15°C° 0.1 mm 2 mps 585 mmHg 47%
    14:00 +15°C° 0.1 mm 2 mps 584 mmHg 49%
    15:00 +14°C° 0.1 mm 3 mps 584 mmHg 51%
    16:00 +13°C° 0.1 mm 2 mps 583 mmHg 65%
    17:00 +11°C° 0.1 mm 1 mps 582 mmHg 79%
    18:00 +9°C° 0.1 mm 1 mps 581 mmHg 94%
    19:00 +9°C° 0.2 mm 1 mps 582 mmHg 93%
    20:00 +8°C° 0.2 mm 1 mps 583 mmHg 93%
    21:00 +7°C° 0.2 mm 0 mps 583 mmHg 93%
    22:00 +8°C° 0.2 mm 1 mps 583 mmHg 92%
    23:00 +8°C° 0.2 mm 1 mps 583 mmHg 91%

    20 February, Thursday

    Time Temperature Precipitation Wind Pressure Humidity
    00:00 +7°C° 0.2 mm 1 mps 583 mmHg 90%
    01:00 +7°C° 0 mm 1 mps 583 mmHg 87%
    02:00 +7°C° 0 mm 1 mps 582 mmHg 84%
    03:00 +7°C° 0 mm 1 mps 582 mmHg 81%
    04:00 +7°C° 0 mm 1 mps 582 mmHg 79%
    05:00 +6°C° 0 mm 1 mps 582 mmHg 78%
    06:00 +5°C° 0 mm 2 mps 581 mmHg 77%
    07:00 +8°C° 0 mm 1 mps 583 mmHg 72%
    08:00 +10°C° 0 mm 1 mps 584 mmHg 67%
    09:00 +12°C° 0 mm 1 mps 585 mmHg 63%
    10:00 +13°C° 0 mm 2 mps 585 mmHg 60%
    11:00 +14°C° 0 mm 2 mps 585 mmHg 58%
    12:00 +14°C° 0 mm 3 mps 585 mmHg 56%
    13:00 +14°C° 0.1 mm 3 mps 585 mmHg 59%
    14:00 +13°C° 0.1 mm 3 mps 584 mmHg 62%
    15:00 +13°C° 0.1 mm 3 mps 584 mmHg 66%
    16:00 +13°C° 0.2 mm 2 mps 583 mmHg 76%
    17:00 +10°C° 0.2 mm 2 mps 583 mmHg 86%
    18:00 +10°C° 0.2 mm 1 mps 583 mmHg 96%
    19:00 +9°C° 0.3 mm 1 mps 583 mmHg 96%
    20:00 +9°C° 0.3 mm 1 mps 584 mmHg 96%
    21:00 +8°C° 0.3 mm 0 mps 585 mmHg 96%
    22:00 +8°C° 0.1 mm 0 mps 585 mmHg 95%
    23:00 +8°C° 0.1 mm 0 mps 585 mmHg 94%

    21 February, Friday

    Time Temperature Precipitation Wind Pressure Humidity
    00:00 +7°C° 0.1 mm 0 mps 585 mmHg 93%
    01:00 +7°C° 0 mm 0 mps 585 mmHg 91%
    02:00 +7°C° 0 mm 0 mps 584 mmHg 89%
    03:00 +7°C° 0 mm 0 mps 584 mmHg 87%
    04:00 +8°C° 0 mm 1 mps 584 mmHg 84%
    05:00 +7°C° 0 mm 1 mps 584 mmHg 80%
    06:00 +7°C° 0 mm 1 mps 584 mmHg 77%
    07:00 +8°C° 0 mm 1 mps 585 mmHg 74%
    08:00 +10°C° 0 mm 1 mps 587 mmHg 71%
    09:00 +12°C° 0 mm 1 mps 588 mmHg 68%
    10:00 +13°C° 0.1 mm 1 mps 588 mmHg 66%
    11:00 +14°C° 0.1 mm 2 mps 588 mmHg 64%
    12:00 +15°C° 0.1 mm 2 mps 588 mmHg 62%
    19:00 +9°C° 0.6 mm 1 mps 585 mmHg 94%
    20:00 +9°C° 0.6 mm 1 mps 585 mmHg 95%
    21:00 +8°C° 0.6 mm 1 mps 586 mmHg 96%
    22:00 +8°C° 0.3 mm 1 mps 586 mmHg 95%
    23:00 +8°C° 0.3 mm 1 mps 586 mmHg 94%

    22 February, Saturday

    Time Temperature Precipitation Wind Pressure Humidity
    00:00 +8°C° 0.3 mm 1 mps 585 mmHg 93%
    01:00 +8°C° 0.1 mm 1 mps 585 mmHg 93%
    02:00 +7°C° 0.1 mm 1 mps 584 mmHg 92%
    03:00 +7°C° 0.1 mm 1 mps 584 mmHg 91%
    04:00 +7°C° 0 mm 1 mps 584 mmHg 90%
    05:00 +6°C° 0 mm 1 mps 583 mmHg 90%
    06:00 +5°C° 0 mm 2 mps 583 mmHg 89%
    07:00 +7°C° 0.1 mm 1 mps 584 mmHg 85%
    08:00 +9°C° 0.1 mm 1 mps 585 mmHg 81%
    09:00 +10°C° 0.1 mm 1 mps 586 mmHg 77%
    10:00 +11°C° 0.3 mm 1 mps 586 mmHg 73%
    11:00 +12°C° 0.3 mm 2 mps 586 mmHg 70%
    12:00 +14°C° 0.3 mm 2 mps 587 mmHg 66%
    13:00 +14°C° 0.3 mm 2 mps 586 mmHg 65%
    14:00 +14°C° 0.3 mm 2 mps 585 mmHg 64%
    15:00 +14°C° 0.3 mm 2 mps 585 mmHg 63%
    16:00 +12°C° 0.3 mm 2 mps 584 mmHg 73%
    17:00 +10°C° 0.3 mm 1 mps 583 mmHg 84%
    18:00 +9°C° 0.3 mm 1 mps 583 mmHg 94%
    19:00 +8°C° 0.2 mm 1 mps 583 mmHg 94%
    20:00 +8°C° 0.2 mm 1 mps 584 mmHg 93%
    21:00 +8°C° 0.2 mm 1 mps 584 mmHg 93%
    22:00 +7°C° 0.1 mm 1 mps 584 mmHg 91%
    23:00 +7°C° 0.1 mm 1 mps 584 mmHg 90%
    Show more